Location: *
(48.4333°N, 5.0333°W)
Time: 15:00:24
(UTC+00:00)

SL-4 R/B - Pass Details

Date: 09 April 2020
Orbit: 428 x 666 km, 51.6° (Epoch: 28 May)

Event Time Altitude Azimuth Distance (km) Brightness Sun altitude
Rises 20:39:39 0° 267° (W) 2,393 6.2 -15.6°
Reaches altitude 10° 20:41:47 10° 273° (W) 1,525 5.2 -15.9°
Maximum altitude 20:45:07 52° 351° (N) 543 2.2 -16.3°
Enters shadow 20:47:12 21° 62° (ENE) 1,049 3.2 -16.6°
